<?xml version="1.0" encoding="UTF-8" standalone="no" ?>
<gpx xmlns="http://www.topografix.com/GPX/1/1" xmlns:xsi="http://www.w3.org/2001/XMLSchema-instance" xsi:schemaLocation="http://www.topografix.com/GPX/1/1 http://www.topografix.com/GPX/1/1/gpx.xsd" version="1.1" creator="VisuGPX - https://www.visugpx.com">
  <metadata>
    <name>Belle-isle-en-terre - 6.35 km - RANDO MUCO 2023</name>
  </metadata>
  <trk>
    <name><![CDATA[Pédestre 7km 2023-10532202]]></name>
    <extensions>
      <line xmlns="http://www.topografix.com/GPX/gpx_style/0/2">
        <color>0000FF</color>
        <width>4</width>
      </line>
    </extensions>
    <trkseg>
      <trkpt lat="48.54651" lon="-3.39649">
        <ele>90</ele>
        <time>2023-04-13T07:21:49Z</time>
      </trkpt>
      <trkpt lat="48.54624" lon="-3.39558">
        <ele>91</ele>
        <time>2023-04-13T07:23:17Z</time>
      </trkpt>
      <trkpt lat="48.54554" lon="-3.39555">
        <ele>92</ele>
        <time>2023-04-13T07:24:51Z</time>
      </trkpt>
      <trkpt lat="48.54515" lon="-3.39576">
        <ele>93</ele>
        <time>2023-04-13T07:25:46Z</time>
      </trkpt>
      <trkpt lat="48.54472" lon="-3.39602">
        <ele>94</ele>
        <time>2023-04-13T07:26:48Z</time>
      </trkpt>
      <trkpt lat="48.54418" lon="-3.39607">
        <ele>94</ele>
        <time>2023-04-13T07:28:00Z</time>
      </trkpt>
      <trkpt lat="48.54376" lon="-3.39573">
        <ele>95</ele>
        <time>2023-04-13T07:29:03Z</time>
      </trkpt>
      <trkpt lat="48.54281" lon="-3.39576">
        <ele>98</ele>
        <time>2023-04-13T07:31:10Z</time>
      </trkpt>
      <trkpt lat="48.54278" lon="-3.39667">
        <ele>97</ele>
        <time>2023-04-13T07:32:31Z</time>
      </trkpt>
      <trkpt lat="48.54195" lon="-3.3966">
        <ele>101</ele>
        <time>2023-04-13T07:34:22Z</time>
      </trkpt>
      <trkpt lat="48.54152" lon="-3.39675">
        <ele>101</ele>
        <time>2023-04-13T07:35:21Z</time>
      </trkpt>
      <trkpt lat="48.54102" lon="-3.3967">
        <ele>103</ele>
        <time>2023-04-13T07:36:27Z</time>
      </trkpt>
      <trkpt lat="48.54048" lon="-3.39683">
        <ele>104</ele>
        <time>2023-04-13T07:37:40Z</time>
      </trkpt>
      <trkpt lat="48.53976" lon="-3.39691">
        <ele>104</ele>
        <time>2023-04-13T07:39:17Z</time>
      </trkpt>
      <trkpt lat="48.5392" lon="-3.39639">
        <ele>107</ele>
        <time>2023-04-13T07:40:44Z</time>
      </trkpt>
      <trkpt lat="48.53848" lon="-3.39513">
        <ele>105</ele>
        <time>2023-04-13T07:43:11Z</time>
      </trkpt>
      <trkpt lat="48.53843" lon="-3.39419">
        <ele>108</ele>
        <time>2023-04-13T07:44:35Z</time>
      </trkpt>
      <trkpt lat="48.53796" lon="-3.39245">
        <ele>122</ele>
        <time>2023-04-13T07:47:21Z</time>
      </trkpt>
      <trkpt lat="48.53735" lon="-3.39211">
        <ele>119</ele>
        <time>2023-04-13T07:48:48Z</time>
      </trkpt>
      <trkpt lat="48.53692" lon="-3.39179">
        <ele>123</ele>
        <time>2023-04-13T07:49:52Z</time>
      </trkpt>
      <trkpt lat="48.53647" lon="-3.39192">
        <ele>121</ele>
        <time>2023-04-13T07:50:53Z</time>
      </trkpt>
      <trkpt lat="48.53591" lon="-3.39169">
        <ele>127</ele>
        <time>2023-04-13T07:52:10Z</time>
      </trkpt>
      <trkpt lat="48.53568" lon="-3.39185">
        <ele>124</ele>
        <time>2023-04-13T07:52:44Z</time>
      </trkpt>
      <trkpt lat="48.5352" lon="-3.39148">
        <ele>131</ele>
        <time>2023-04-13T07:53:56Z</time>
      </trkpt>
      <trkpt lat="48.53482" lon="-3.39166">
        <ele>130</ele>
        <time>2023-04-13T07:54:49Z</time>
      </trkpt>
      <trkpt lat="48.53419" lon="-3.39182">
        <ele>124</ele>
        <time>2023-04-13T07:56:14Z</time>
      </trkpt>
      <trkpt lat="48.53363" lon="-3.392">
        <ele>117</ele>
        <time>2023-04-13T07:57:31Z</time>
      </trkpt>
      <trkpt lat="48.53316" lon="-3.39294">
        <ele>105</ele>
        <time>2023-04-13T07:59:15Z</time>
      </trkpt>
      <trkpt lat="48.53223" lon="-3.39339">
        <ele>108</ele>
        <time>2023-04-13T08:01:25Z</time>
      </trkpt>
      <trkpt lat="48.53153" lon="-3.39375">
        <ele>110</ele>
        <time>2023-04-13T08:03:04Z</time>
      </trkpt>
      <trkpt lat="48.53072" lon="-3.39399">
        <ele>112</ele>
        <time>2023-04-13T08:04:54Z</time>
      </trkpt>
      <trkpt lat="48.53009" lon="-3.39399">
        <ele>112</ele>
        <time>2023-04-13T08:06:18Z</time>
      </trkpt>
      <trkpt lat="48.52957" lon="-3.39406">
        <ele>108</ele>
        <time>2023-04-13T08:07:28Z</time>
      </trkpt>
      <trkpt lat="48.5293" lon="-3.39328">
        <ele>119</ele>
        <time>2023-04-13T08:08:45Z</time>
      </trkpt>
      <trkpt lat="48.52875" lon="-3.39294">
        <ele>115</ele>
        <time>2023-04-13T08:10:05Z</time>
      </trkpt>
      <trkpt lat="48.52806" lon="-3.39305">
        <ele>108</ele>
        <time>2023-04-13T08:11:37Z</time>
      </trkpt>
      <trkpt lat="48.52722" lon="-3.39302">
        <ele>108</ele>
        <time>2023-04-13T08:13:29Z</time>
      </trkpt>
      <trkpt lat="48.52637" lon="-3.39297">
        <ele>114</ele>
        <time>2023-04-13T08:15:23Z</time>
      </trkpt>
      <trkpt lat="48.5261" lon="-3.39349">
        <ele>112</ele>
        <time>2023-04-13T08:16:21Z</time>
      </trkpt>
      <trkpt lat="48.52542" lon="-3.39464">
        <ele>113</ele>
        <time>2023-04-13T08:18:38Z</time>
      </trkpt>
      <trkpt lat="48.52486" lon="-3.3955">
        <ele>111</ele>
        <time>2023-04-13T08:20:24Z</time>
      </trkpt>
      <trkpt lat="48.52434" lon="-3.39592">
        <ele>109</ele>
        <time>2023-04-13T08:21:43Z</time>
      </trkpt>
      <trkpt lat="48.52488" lon="-3.39711">
        <ele>102</ele>
        <time>2023-04-13T08:23:50Z</time>
      </trkpt>
      <trkpt lat="48.52496" lon="-3.39785">
        <ele>100</ele>
        <time>2023-04-13T08:24:57Z</time>
      </trkpt>
      <trkpt lat="48.52488" lon="-3.39874">
        <ele>102</ele>
        <time>2023-04-13T08:26:16Z</time>
      </trkpt>
      <trkpt lat="48.52467" lon="-3.39986">
        <ele>115</ele>
        <time>2023-04-13T08:27:59Z</time>
      </trkpt>
      <trkpt lat="48.52524" lon="-3.40015">
        <ele>125</ele>
        <time>2023-04-13T08:29:19Z</time>
      </trkpt>
      <trkpt lat="48.52558" lon="-3.40012">
        <ele>129</ele>
        <time>2023-04-13T08:30:05Z</time>
      </trkpt>
      <trkpt lat="48.5258" lon="-3.39962">
        <ele>123</ele>
        <time>2023-04-13T08:30:58Z</time>
      </trkpt>
      <trkpt lat="48.52603" lon="-3.39952">
        <ele>124</ele>
        <time>2023-04-13T08:31:30Z</time>
      </trkpt>
      <trkpt lat="48.52616" lon="-3.39921">
        <ele>121</ele>
        <time>2023-04-13T08:32:02Z</time>
      </trkpt>
      <trkpt lat="48.5265" lon="-3.39908">
        <ele>124</ele>
        <time>2023-04-13T08:32:49Z</time>
      </trkpt>
      <trkpt lat="48.52661" lon="-3.39866">
        <ele>120</ele>
        <time>2023-04-13T08:33:29Z</time>
      </trkpt>
      <trkpt lat="48.52715" lon="-3.39824">
        <ele>120</ele>
        <time>2023-04-13T08:34:50Z</time>
      </trkpt>
      <trkpt lat="48.52758" lon="-3.39811">
        <ele>123</ele>
        <time>2023-04-13T08:35:48Z</time>
      </trkpt>
      <trkpt lat="48.52774" lon="-3.3978">
        <ele>120</ele>
        <time>2023-04-13T08:36:23Z</time>
      </trkpt>
      <trkpt lat="48.52867" lon="-3.39866">
        <ele>132</ele>
        <time>2023-04-13T08:38:49Z</time>
      </trkpt>
      <trkpt lat="48.52909" lon="-3.39871">
        <ele>136</ele>
        <time>2023-04-13T08:39:45Z</time>
      </trkpt>
      <trkpt lat="48.52948" lon="-3.39905">
        <ele>140</ele>
        <time>2023-04-13T08:40:45Z</time>
      </trkpt>
      <trkpt lat="48.52979" lon="-3.39934">
        <ele>144</ele>
        <time>2023-04-13T08:41:34Z</time>
      </trkpt>
      <trkpt lat="48.53011" lon="-3.39944">
        <ele>146</ele>
        <time>2023-04-13T08:42:17Z</time>
      </trkpt>
      <trkpt lat="48.53061" lon="-3.3997">
        <ele>151</ele>
        <time>2023-04-13T08:43:28Z</time>
      </trkpt>
      <trkpt lat="48.5309" lon="-3.40001">
        <ele>154</ele>
        <time>2023-04-13T08:44:15Z</time>
      </trkpt>
      <trkpt lat="48.53113" lon="-3.40046">
        <ele>156</ele>
        <time>2023-04-13T08:45:05Z</time>
      </trkpt>
      <trkpt lat="48.53148" lon="-3.40039">
        <ele>158</ele>
        <time>2023-04-13T08:45:53Z</time>
      </trkpt>
      <trkpt lat="48.53219" lon="-3.40099">
        <ele>157</ele>
        <time>2023-04-13T08:47:41Z</time>
      </trkpt>
      <trkpt lat="48.53313" lon="-3.40174">
        <ele>155</ele>
        <time>2023-04-13T08:50:03Z</time>
      </trkpt>
      <trkpt lat="48.53354" lon="-3.40166">
        <ele>153</ele>
        <time>2023-04-13T08:50:58Z</time>
      </trkpt>
      <trkpt lat="48.53388" lon="-3.4014">
        <ele>151</ele>
        <time>2023-04-13T08:51:49Z</time>
      </trkpt>
      <trkpt lat="48.53409" lon="-3.40186">
        <ele>152</ele>
        <time>2023-04-13T08:52:38Z</time>
      </trkpt>
      <trkpt lat="48.53467" lon="-3.40226">
        <ele>150</ele>
        <time>2023-04-13T08:54:03Z</time>
      </trkpt>
      <trkpt lat="48.53484" lon="-3.40236">
        <ele>150</ele>
        <time>2023-04-13T08:54:28Z</time>
      </trkpt>
      <trkpt lat="48.53538" lon="-3.40152">
        <ele>147</ele>
        <time>2023-04-13T08:56:11Z</time>
      </trkpt>
      <trkpt lat="48.53586" lon="-3.40075">
        <ele>144</ele>
        <time>2023-04-13T08:57:45Z</time>
      </trkpt>
      <trkpt lat="48.53651" lon="-3.40158">
        <ele>141</ele>
        <time>2023-04-13T08:59:38Z</time>
      </trkpt>
      <trkpt lat="48.53714" lon="-3.40082">
        <ele>135</ele>
        <time>2023-04-13T09:01:26Z</time>
      </trkpt>
      <trkpt lat="48.53769" lon="-3.40123">
        <ele>128</ele>
        <time>2023-04-13T09:02:48Z</time>
      </trkpt>
      <trkpt lat="48.53792" lon="-3.40024">
        <ele>122</ele>
        <time>2023-04-13T09:04:20Z</time>
      </trkpt>
      <trkpt lat="48.53792" lon="-3.39972">
        <ele>122</ele>
        <time>2023-04-13T09:05:06Z</time>
      </trkpt>
      <trkpt lat="48.53844" lon="-3.39969">
        <ele>117</ele>
        <time>2023-04-13T09:06:16Z</time>
      </trkpt>
      <trkpt lat="48.53887" lon="-3.39922">
        <ele>112</ele>
        <time>2023-04-13T09:07:27Z</time>
      </trkpt>
      <trkpt lat="48.53931" lon="-3.39815">
        <ele>101</ele>
        <time>2023-04-13T09:09:18Z</time>
      </trkpt>
      <trkpt lat="48.53976" lon="-3.39778">
        <ele>101</ele>
        <time>2023-04-13T09:10:26Z</time>
      </trkpt>
      <trkpt lat="48.54012" lon="-3.39778">
        <ele>102</ele>
        <time>2023-04-13T09:11:14Z</time>
      </trkpt>
      <trkpt lat="48.54052" lon="-3.39787">
        <ele>103</ele>
        <time>2023-04-13T09:12:08Z</time>
      </trkpt>
      <trkpt lat="48.54098" lon="-3.39778">
        <ele>102</ele>
        <time>2023-04-13T09:13:10Z</time>
      </trkpt>
      <trkpt lat="48.54158" lon="-3.39792">
        <ele>102</ele>
        <time>2023-04-13T09:14:31Z</time>
      </trkpt>
      <trkpt lat="48.54202" lon="-3.3978">
        <ele>100</ele>
        <time>2023-04-13T09:15:31Z</time>
      </trkpt>
      <trkpt lat="48.54234" lon="-3.39772">
        <ele>98</ele>
        <time>2023-04-13T09:16:14Z</time>
      </trkpt>
      <trkpt lat="48.54258" lon="-3.39793">
        <ele>100</ele>
        <time>2023-04-13T09:16:51Z</time>
      </trkpt>
      <trkpt lat="48.54292" lon="-3.39784">
        <ele>99</ele>
        <time>2023-04-13T09:17:37Z</time>
      </trkpt>
      <trkpt lat="48.5432" lon="-3.39759">
        <ele>96</ele>
        <time>2023-04-13T09:18:21Z</time>
      </trkpt>
      <trkpt lat="48.54378" lon="-3.39782">
        <ele>98</ele>
        <time>2023-04-13T09:19:41Z</time>
      </trkpt>
      <trkpt lat="48.54445" lon="-3.39785">
        <ele>96</ele>
        <time>2023-04-13T09:21:10Z</time>
      </trkpt>
      <trkpt lat="48.54481" lon="-3.398">
        <ele>94</ele>
        <time>2023-04-13T09:22:00Z</time>
      </trkpt>
      <trkpt lat="48.54516" lon="-3.39833">
        <ele>94</ele>
        <time>2023-04-13T09:22:55Z</time>
      </trkpt>
      <trkpt lat="48.54621" lon="-3.39921">
        <ele>95</ele>
        <time>2023-04-13T09:25:35Z</time>
      </trkpt>
      <trkpt lat="48.54693" lon="-3.39881">
        <ele>94</ele>
        <time>2023-04-13T09:27:18Z</time>
      </trkpt>
      <trkpt lat="48.54693" lon="-3.39795">
        <ele>90</ele>
        <time>2023-04-13T09:28:34Z</time>
      </trkpt>
    </trkseg>
  </trk>
</gpx>